Boise, ID

11:30 PM MST on December 05, 2016 (GMT -0700)
Boise Air Term

Weather History for KBOI - February, 2014

Change the Weather History Date:

Monday, February 24, 2014

  Actual Average Record
Temperature  
Mean Temperature 47 °F 39 °F  
Max Temperature 59 °F 48 °F 68 °F (1986)
Min Temperature 35 °F 30 °F 10 °F (1894)
Degree Days  
Heating Degree Days 18 26  
Month to date heating degree days 647 697  
Since 1 July heating degree days 4268 4058  
Cooling Degree Days 0 0  
Month to date cooling degree days 0 0  
Year to date cooling degree days 0 0  
Moisture  
Dew Point 34 °F    
Average Humidity 61    
Maximum Humidity 82    
Minimum Humidity 40    
Precipitation  
Precipitation T in 0.04 in 0.69 in (1902)
Month to date precipitation 2.08 0.84  
Year to date precipitation 2.89 2.08  
Snow  
Snow 0.00 in 0.00 in 3.00 in (1996)
Month to date snowfall 4.2 2.5  
Since 1 July snowfall 14.4 17.3  
Snow Depth 0.00 in    
Sea Level Pressure  
Sea Level Pressure 30.03 in    
Wind  
Wind Speed 3 mph (SE)    
Max Wind Speed 10 mph    
Max Gust Speed 14 mph    
Visibility 10 miles    
Events      
T = Trace of Precipitation, MM = Missing Value Source: NWS Daily Summary

Daily Weather History Graph

Daily Weather History Graph

Search for Another Location

Airport or City:

Trip Planner

Search our weather history database for the weather conditions in past years. The results will help you decide how hot, cold, wet, or windy it might be!

Date:

Astronomy

Feb. 24, 2014 Rise Set
Actual Time 7:29 AM MST 6:27 PM MST
Civil Twilight 7:00 AM MST 6:56 PM MST
Nautical Twilight 6:27 AM MST 7:29 PM MST
Astronomical Twilight 5:54 AM MST 8:02 PM MST
Moon 3:38 AM MST (2/24) 1:27 PM MST (2/24)
Length of Visible Light 11h 55m
Length of Day
10h 57m
Waning Crescent, 27% of the Moon is Illuminated
Feb 24
Waning Crescent
Mar 1
New
Mar 8
First Quarter
Mar 16
Full
Mar 23
Last Quarter

Hourly Weather History & Observations

Time (MST) Temp. Windchill Dew Point Humidity Pressure Visibility Wind Dir Wind Speed Gust Speed Precip Events Conditions
12:53 AM 46.9 °F - 33.1 °F 59% 29.95 in 10.0 mi SE 6.9 mph - N/A   Overcast
1:53 AM 45.0 °F - 34.0 °F 65% 29.98 in 10.0 mi Calm Calm - N/A   Overcast
2:53 AM 43.0 °F - 34.0 °F 71% 29.99 in 10.0 mi Calm Calm - N/A   Scattered Clouds
3:53 AM 37.9 °F 35.5 °F 32.0 °F 79% 30.01 in 10.0 mi SE 3.5 mph - N/A   Partly Cloudy
4:53 AM 37.0 °F - 30.9 °F 79% 30.03 in 10.0 mi Calm Calm - N/A   Clear
5:53 AM 36.0 °F 32.1 °F 30.9 °F 82% 30.05 in 10.0 mi ESE 4.6 mph - N/A   Clear
6:53 AM 36.0 °F 33.3 °F 30.9 °F 82% 30.07 in 10.0 mi SE 3.5 mph - N/A   Mostly Cloudy
7:53 AM 36.0 °F - 30.9 °F 82% 30.08 in 10.0 mi Calm Calm - N/A   Clear
8:53 AM 37.9 °F 35.5 °F 32.0 °F 79% 30.10 in 10.0 mi East 3.5 mph - N/A   Clear
9:53 AM 45.0 °F - 34.0 °F 65% 30.09 in 10.0 mi Calm Calm - N/A   Clear
10:53 AM 50.0 °F - 35.1 °F 57% 30.09 in 10.0 mi NW 4.6 mph - N/A   Clear
11:53 AM 53.1 °F - 36.0 °F 52% 30.08 in 10.0 mi West 4.6 mph - N/A   Clear
12:53 PM 55.9 °F - 37.0 °F 49% 30.06 in 10.0 mi Variable 3.5 mph - N/A   Clear
1:53 PM 55.9 °F - 36.0 °F 47% 30.04 in 10.0 mi Variable 5.8 mph - N/A   Clear
2:53 PM 57.9 °F - 35.1 °F 42% 30.02 in 10.0 mi Variable 4.6 mph - N/A   Partly Cloudy
3:53 PM 59.0 °F - 35.1 °F 41% 30.02 in 10.0 mi NNW 5.8 mph - N/A   Partly Cloudy
4:53 PM 57.9 °F - 35.1 °F 42% 30.02 in 10.0 mi NW 4.6 mph - N/A   Partly Cloudy
5:53 PM 57.0 °F - 33.1 °F 40% 30.01 in 10.0 mi Calm Calm - N/A   Clear
6:53 PM 54.0 °F - 34.0 °F 47% 30.01 in 10.0 mi Calm Calm - N/A   Scattered Clouds
7:53 PM 52.0 °F - 36.0 °F 54% 30.03 in 10.0 mi Calm Calm - N/A   Overcast
8:53 PM 51.1 °F - 37.0 °F 59% 30.01 in 10.0 mi SE 5.8 mph - N/A   Mostly Cloudy
9:53 PM 48.9 °F - 37.0 °F 64% 30.01 in 10.0 mi SE 8.1 mph - N/A   Overcast
10:53 PM 48.9 °F - 37.0 °F 64% 30.01 in 10.0 mi SE 5.8 mph - 0.00 in   Overcast
11:53 PM 48.9 °F - 37.0 °F 64% 30.01 in 10.0 mi Calm Calm - N/A   Overcast